Vorticity
4 15 13 10 17 17 0 45 2 37 18 7 10 11 10 9 7 9 8 7 7 6 9 10 10 9 8 5 4 7 5 6 6 21 6 6 4 5 4 6 6 7 10 8 4
18 8 19 16 23 3 9 45 1 13 21 7 6 10 8 7 4 6 7 8 7 7 8 7 7 5 4 4 4 3 1 5 6 -7 -1 -16 1 1 3 6 6 7 9 10 7
21 10 7 12 7 16 7 36 6 -19 -8 9 6 11 6 3 4 7 6 6 7 7 7 7 7 7 6 8 8 7 4 3 2 -2 -2 1 4 4 7 8 10 8 -1 5 8
24 23 31 21 12 15 10 37 6 -8 15 1 7 6 12 7 2 5 7 6 7 8 8 8 8 8 10 12 10 10 9 8 5 6 8 8 7 5 6 10 9 8 7 6 10
19 2 16 12 14 23 36 19 -6 -1 6 -3 3 6 11 5 4 11 7 10 2 5 4 6 7 6 7 3 6 13 7 7 9 8 8 9 6 9 8 10 10 8 9 10 10
18 24 12 23 31 22 26 8 -3 6 17 5 5 2 7 14 3 8 13 7 7 7 7 6 7 10 9 6 8 -8 1 10 11 12 14 11 11 10 11 17 19 16 12 7 7
17 9 24 12 -1 18 8 11 10 10 8 9 5 7 12 12 6 5 5 4 6 7 8 7 7 9 5 14 10 10 9 11 15 20 -4 -0 9 19 24 -2 -0 8 7 6 4
17 10 7 6 5 19 21 -10 4 18 10 14 11 10 7 5 6 6 4 5 7 8 10 11 14 15 15 9 14 13 14 13 11 3 15 13 18 8 10 9 -1 1 4 7 6
9 8 10 12 20 14 5 5 4 6 4 5 8 5 3 8 4 6 8 9 7 6 8 9 10 12 10 9 10 41 -7 6 10 12 7 6 3 -6 2 -7 5 6 -1 3 4
5 8 5 6 6 4 -0 -1 8 6 2 6 4 7 8 7 6 5 6 5 7 6 18 3 11 8 10 3 -3 -9 -1 6 5 8 2 9 -3 2 8 7 8 2 2 3 10
11 2 1 4 5 5 3 7 11 14 21 19 6 5 5 5 7 6 7 8 11 14 6 5 8 8 11 10 5 6 6 7 9 16 15 5 5 10 9 5 12 3 -4 6 5
9 14 16 18 17 15 14 11 8 3 2 3 5 8 3 5 7 6 6 15 15 9 6 5 7 7 -0 16 15 8 10 14 16 7 25 13 4 17 3 11 5 9 3 10 8
4 7 8 3 6 3 -3 -4 -2 1 2 2 2 4 13 5 7 5 7 10 18 19 6 7 2 0 19 6 7 17 21 20 8 10 0 5 18 37 19 6 -1 0 4 11 9
-3 -0 3 1 2 -1 1 3 4 0 7 -4 7 -3 5 15 -9 5 6 14 15 3 19 20 7 9 8 4 7 5 6 7 9 7 9 22 -13 42 8 -4 -3 6 4 15 7
5 2 2 4 6 6 10 17 13 14 10 8 1 4 19 13 5 -4 8 15 11 11 0 3 5 12 12 7 11 12 8 14 19 12 6 17 2 40 -2 -12 11 8 18 27 9
12 13 14 14 12 17 15 11 14 17 -3 3 7 7 10 3 2 7 9 7 17 16 5 7 8 18 10 24 3 18 8 12 8 2 22 22 -7 46 -13 -8 6 11 15 11 15
5 8 7 9 13 11 13 17 11 13 12 1 1 6 9 4 12 7 10 -3 15 11 17 13 20 -1 9 15 -0 6 11 22 13 12 6 8 10 -15 -7 3 6 13 15 3 18
5 4 5 2 5 8 12 12 14 3 8 7 15 13 8 8 2 15 14 3 1 21 8 8 17 8 -8 11 12 11 9 8 10 9 6 5 12 15 4 6 4 8 10 12 2
8 9 4 6 4 7 10 7 7 11 9 4 12 6 10 0 18 16 3 12 13 14 16 9 19 4 7 13 16 6 10 -1 8 27 15 11 16 -0 23 8 2 6 9 10 14
7 11 3 7 6 6 9 11 10 9 9 10 13 7 11 -2 24 5 15 12 -1 12 12 -1 12 11 2 10 6 14 8 4 12 8 14 26 6 -1 -0 -3 6 5 6 8 11
2 5 7 9 8 8 8 7 9 6 10 15 5 8 5 6 7 12 -3 12 -1 6 22 10 12 6 11 11 7 2 8 9 10 5 8 6 16 4 -7 11 8 7 5 6 8
6 5 9 6 11 4 4 4 5 5 8 9 14 5 10 7 20 14 -0 10 13 9 14 13 13 6 -3 3 7 7 2 11 3 14 6 1 15 16 12 7 7 6 7 4 5
12 11 14 3 8 9 4 9 10 9 8 2 5 9 7 8 18 6 1 8 3 10 1 -4 3 12 21 21 22 9 12 9 7 12 22 1 4 -2 1 13 19 7 6 6 4
11 8 13 11 18 -4 2 23 14 6 8 13 -0 13 3 6 9 -2 1 -3 4 13 16 14 8 -4 -23 -21 -12 -2 1 14 4 8 3 -18 -20 -6 16 12 9 19 7 7 6
13 14 2 -14 11 8 6 4 14 9 8 7 2 4 5 9 7 15 -1 1 6 17 11 12 10 9 6 1 17 14 14 8 0 5 -6 -13 -18 7 18 15 2 5 14 5 6
8 14 9 3 11 11 10 5 8 12 15 8 7 11 8 3 4 3 4 10 15 5 -2 10 7 -3 1 43 9 5 5 13 17 5 6 21 3 7 7 15 18 18 20 11 8
3 -1 3 12 7 8 11 8 5 8 21 4 -4 3 8 9 9 2 5 7 3 12 11 17 13 -5 19 -5 9 55 56 42 12 8 5 7 10 3 6 10 13 15 18 19 12
Height
3015 3014 3014 3016 3018 3020 3026 3029 3034 3043 3053 3060 3065 3069 3072 3075 3078 3081 3083 3086 3087 3088 3089 3091 3092 3094 3096 3098 3100 3101 3103 3104 3106 3104 3104 3100 3105 3105 3106 3107 3108 3109 3109 3110 3108
3016 3016 3017 3018 3020 3023 3027 3030 3037 3047 3057 3062 3066 3070 3073 3076 3078 3080 3084 3085 3087 3088 3089 3091 3093 3094 3095 3097 3099 3100 3100 3100 3100 3099 3100 3098 3101 3101 3103 3103 3104 3103 3103 3102 3102
3020 3019 3019 3020 3022 3025 3029 3034 3043 3052 3059 3064 3067 3070 3073 3076 3079 3080 3083 3085 3087 3089 3090 3091 3092 3093 3094 3095 3096 3097 3098 3095 3097 3096 3097 3096 3096 3096 3096 3098 3100 3097 3096 3098 3098
3025 3023 3023 3024 3027 3030 3033 3038 3048 3056 3061 3065 3068 3070 3073 3076 3082 3082 3085 3086 3087 3088 3090 3090 3091 3090 3091 3092 3092 3094 3093 3093 3093 3092 3093 3092 3091 3091 3091 3092 3094 3093 3092 3092 3093
3034 3031 3031 3031 3031 3032 3036 3045 3052 3060 3064 3068 3071 3075 3079 3081 3083 3084 3086 3087 3088 3089 3089 3089 3089 3088 3090 3089 3089 3089 3089 3088 3088 3087 3087 3087 3087 3086 3085 3088 3088 3088 3088 3087 3087
3045 3040 3038 3039 3040 3041 3046 3054 3059 3065 3070 3074 3076 3078 3081 3083 3083 3084 3085 3085 3086 3086 3086 3087 3087 3087 3086 3086 3086 3085 3084 3084 3083 3083 3082 3082 3082 3082 3083 3082 3082 3084 3084 3083 3081
3056 3056 3052 3049 3052 3056 3058 3063 3068 3072 3076 3079 3081 3083 3084 3086 3084 3085 3085 3085 3085 3085 3084 3085 3085 3084 3083 3082 3082 3082 3082 3080 3080 3080 3079 3079 3078 3078 3080 3080 3080 3080 3079 3077 3077
3063 3063 3063 3066 3066 3066 3069 3073 3076 3080 3082 3083 3083 3084 3085 3085 3086 3085 3084 3084 3084 3083 3083 3082 3081 3080 3079 3080 3080 3079 3080 3078 3077 3076 3077 3077 3075 3076 3077 3077 3078 3076 3075 3073 3071
3072 3071 3071 3072 3074 3076 3078 3079 3081 3083 3083 3084 3085 3084 3086 3086 3086 3085 3085 3083 3082 3081 3080 3079 3078 3078 3078 3078 3078 3077 3077 3076 3076 3075 3076 3076 3074 3075 3077 3076 3074 3072 3072 3068 3063
3086 3083 3080 3080 3080 3082 3083 3085 3086 3086 3087 3088 3089 3091 3089 3089 3087 3085 3083 3081 3080 3079 3077 3078 3076 3076 3077 3076 3075 3075 3075 3073 3074 3075 3074 3073 3071 3070 3071 3072 3071 3069 3065 3061 3058
3102 3097 3092 3089 3089 3090 3090 3090 3092 3093 3091 3091 3090 3090 3089 3088 3086 3085 3084 3082 3080 3079 3080 3079 3077 3076 3076 3074 3073 3072 3072 3071 3070 3071 3072 3070 3067 3066 3067 3067 3065 3062 3056 3056 3051
3106 3106 3106 3101 3098 3097 3098 3096 3095 3097 3094 3093 3093 3092 3091 3089 3088 3086 3085 3083 3079 3078 3079 3079 3075 3075 3073 3071 3070 3070 3069 3067 3068 3068 3068 3066 3062 3061 3062 3061 3059 3055 3050 3047 3041
3113 3112 3110 3110 3109 3107 3106 3104 3102 3100 3099 3099 3097 3095 3093 3092 3089 3087 3085 3081 3078 3077 3078 3077 3075 3074 3072 3071 3070 3068 3067 3066 3067 3064 3063 3062 3055 3050 3055 3056 3054 3050 3047 3039 3034
3118 3115 3113 3113 3113 3111 3110 3108 3106 3104 3103 3104 3100 3097 3095 3092 3090 3087 3084 3082 3078 3078 3076 3075 3074 3072 3070 3069 3068 3065 3064 3064 3062 3064 3062 3061 3055 3049 3051 3053 3049 3046 3041 3035 3032
3123 3121 3118 3114 3112 3110 3109 3107 3105 3105 3104 3105 3101 3099 3095 3095 3092 3088 3085 3082 3079 3078 3079 3077 3072 3070 3069 3069 3066 3065 3062 3061 3060 3061 3062 3058 3059 3047 3050 3048 3046 3042 3036 3031 3028
3123 3121 3119 3116 3112 3109 3107 3106 3105 3106 3106 3105 3102 3100 3097 3094 3092 3089 3086 3083 3080 3078 3076 3074 3073 3070 3068 3066 3065 3064 3063 3061 3060 3060 3059 3052 3055 3048 3046 3045 3043 3039 3035 3031 3027
3123 3121 3119 3117 3115 3111 3108 3106 3106 3104 3107 3104 3100 3098 3096 3093 3092 3089 3087 3085 3083 3080 3077 3073 3071 3069 3067 3065 3065 3064 3063 3061 3062 3059 3054 3050 3051 3044 3043 3043 3040 3037 3033 3030 3026
3125 3122 3120 3118 3115 3112 3109 3109 3105 3105 3103 3101 3099 3097 3095 3094 3091 3090 3089 3088 3083 3081 3078 3076 3071 3069 3066 3066 3065 3064 3063 3063 3059 3055 3051 3049 3045 3040 3040 3040 3037 3034 3031 3029 3025
3126 3123 3121 3118 3116 3113 3112 3109 3108 3106 3105 3102 3099 3096 3095 3092 3092 3089 3087 3086 3084 3081 3080 3076 3072 3069 3067 3066 3066 3063 3063 3062 3061 3056 3054 3044 3042 3040 3038 3037 3035 3034 3031 3028 3024
3126 3124 3121 3118 3116 3114 3113 3111 3108 3107 3104 3102 3099 3098 3096 3093 3090 3089 3088 3085 3083 3081 3078 3075 3071 3068 3066 3065 3064 3063 3063 3062 3060 3059 3053 3039 3037 3035 3035 3036 3035 3033 3031 3027 3024
3125 3123 3120 3118 3116 3114 3112 3110 3107 3105 3104 3103 3100 3098 3096 3093 3089 3085 3086 3084 3081 3079 3077 3075 3073 3068 3065 3063 3061 3061 3060 3060 3060 3057 3055 3051 3036 3034 3033 3034 3032 3032 3030 3027 3023
3123 3121 3119 3117 3116 3112 3111 3109 3108 3105 3103 3101 3099 3096 3095 3092 3089 3086 3083 3080 3078 3077 3075 3074 3071 3065 3064 3061 3060 3059 3058 3058 3058 3056 3053 3050 3037 3032 3032 3031 3030 3028 3027 3026 3023
3121 3118 3117 3115 3113 3111 3109 3107 3105 3103 3102 3099 3097 3094 3092 3090 3089 3085 3082 3079 3077 3075 3073 3071 3068 3064 3061 3061 3057 3055 3055 3055 3054 3053 3049 3049 3033 3030 3029 3028 3026 3026 3025 3024 3023
3120 3117 3115 3112 3111 3110 3107 3105 3103 3101 3100 3099 3096 3093 3090 3088 3086 3083 3080 3077 3075 3072 3070 3069 3065 3063 3059 3055 3054 3052 3051 3051 3050 3048 3042 3035 3029 3029 3028 3024 3022 3022 3022 3021 3020
3118 3114 3112 3110 3108 3107 3105 3104 3102 3100 3098 3096 3095 3094 3090 3087 3085 3082 3080 3077 3072 3070 3068 3067 3062 3059 3055 3051 3048 3045 3043 3045 3041 3041 3037 3028 3024 3025 3024 3022 3020 3017 3017 3017 3017
3115 3113 3110 3107 3106 3104 3102 3101 3099 3097 3097 3094 3092 3089 3089 3087 3086 3081 3080 3078 3073 3068 3065 3063 3060 3055 3047 3045 3043 3038 3036 3035 3036 3033 3029 3026 3020 3020 3018 3017 3015 3014 3013 3014 3014
3110 3108 3106 3105 3102 3101 3098 3097 3095 3094 3092 3091 3090 3088 3087 3085 3081 3079 3076 3073 3070 3066 3064 3060 3057 3056 3046 3044 3039 3031 3025 3026 3027 3027 3028 3023 3021 3017 3016 3014 3013 3011 3009 3010 3010